Location: Newark
(50.4348°N, 30.5552°E)
Time: 20:57:13
(UTC+00:00)

Altair - Pass Details

Date: 29 January 2020
Orbit: 1502 x 1682 km, 47.2° (Epoch: 19 February)

Event Time Altitude Azimuth Distance (km) Brightness Sun altitude
Rises 04:09:02 0° 197° (SSW) 4,828 10.1 -14.1°
Reaches altitude 10° 04:12:44 10° 186° (S) 3,871 9.7 -13.5°
Maximum altitude 04:20:31 27° 134° (SE) 2,800 9.6 -12.3°
Drops below altitude 10° 04:28:25 10° 82° (E) 3,947 10.8 -11.1°
Sets 04:32:13 0° 71° (ENE) 4,941 11.2 -10.5°
